West Palm Beach, FL

7:35 PM EST on November 21, 2019 (GMT -0500)
Palm Beach International

Weather History for KPBI - July, 2019

Change the Weather History Date:

Wednesday, July 24, 2019

  Actual Average Record
Temperature  
Mean Temperature 86 °F 83 °F  
Max Temperature 95 °F 90 °F 97 °F (1912)
Min Temperature 77 °F 76 °F 67 °F (1940)
Degree Days  
Heating Degree Days 0 0  
Month to date heating degree days 0  
Since 1 June heating degree days 0  
Since 1 July heating degree days 0  
Cooling Degree Days 21 18  
Month to date cooling degree days 421  
Year to date cooling degree days 2020  
Since 1 June cooling degree days 911  
Growing Degree Days 36 (Base 50)    
Moisture  
Dew Point 74 °F    
Average Humidity 75    
Maximum Humidity 87    
Minimum Humidity 45    
Precipitation  
Precipitation 0.00 in 0.17 in 2.00 in (1933)
Month to date precipitation 4.51  
Year to date precipitation 31.52  
Snow  
Snow 0.00 in - - ()
Month to date snowfall  
Since 1 June snowfall  
Since 1 July snowfall  
Snow Depth -    
Sea Level Pressure  
Sea Level Pressure 29.98 in    
Wind  
Wind Speed 7 mph (WSW)    
Max Wind Speed 20 mph    
Max Gust Speed 26 mph    
Visibility 10 miles    
Events Rain , Thunderstorm    
T = Trace of Precipitation, MM = Missing Value Source: NWS Daily Summary

Daily Weather History Graph

Daily Weather History Graph

Search for Another Location

Airport or City:

Astronomy

Jul. 24, 2019 Rise Set
Actual Time 6:41 AM EDT 8:12 PM EDT
Civil Twilight 6:15 AM EDT 8:37 PM EDT
Nautical Twilight 5:45 AM EDT 9:08 PM EDT
Astronomical Twilight 5:13 AM EDT 9:39 PM EDT
Moon 12:33 AM EDT (7/24) 1:12 PM EDT (7/24)
Length of Visible Light 14h 22m
Length of Day
13h 31m
Waning Gibbous, 54% of the Moon is Illuminated
Jul 24
Waning Gibbous
Jul 24
Last Quarter
Jul 31
New
Aug 7
First Quarter
Aug 15
Full

Hourly Weather History & Observations

Time (EDT) Temp. Heat Index Dew Point Humidity Pressure Visibility Wind Dir Wind Speed Gust Speed Precip Events Conditions
12:53 AM 79.0 °F - 73.0 °F 82% 30.00 in 10.0 mi WSW 4.6 mph - N/A   Scattered Clouds
1:53 AM 79.0 °F - 72.0 °F 79% 29.98 in 10.0 mi SW 3.5 mph - N/A   Scattered Clouds
2:53 AM 79.0 °F - 72.0 °F 79% 29.96 in 10.0 mi South 4.6 mph - N/A   Scattered Clouds
3:53 AM 78.1 °F - 72.0 °F 81% 29.97 in 10.0 mi SW 4.6 mph - N/A   Scattered Clouds
4:53 AM 78.1 °F - 72.0 °F 81% 29.97 in 10.0 mi SW 4.6 mph - N/A   Scattered Clouds
5:53 AM 78.1 °F - 72.0 °F 81% 29.97 in 10.0 mi SSW 5.8 mph - N/A   Scattered Clouds
6:53 AM 78.1 °F - 72.0 °F 81% 29.98 in 10.0 mi SSW 5.8 mph - N/A   Scattered Clouds
7:53 AM 80.1 °F 85.4 °F 75.9 °F 87% 29.99 in 10.0 mi SSW 6.9 mph - N/A   Partly Cloudy
8:53 AM 82.0 °F 89.4 °F 75.9 °F 82% 30.00 in 10.0 mi SW 9.2 mph - N/A   Partly Cloudy
9:53 AM 84.9 °F 94.1 °F 75.9 °F 74% 30.00 in 10.0 mi SSW 13.8 mph - N/A   Scattered Clouds
10:53 AM 88.0 °F 97.5 °F 75.0 °F 65% 30.00 in 10.0 mi SW 15.0 mph 19.6 mph N/A   Scattered Clouds
11:53 AM 90.0 °F 100.2 °F 75.0 °F 61% 29.99 in 10.0 mi SW 11.5 mph 20.7 mph N/A   Scattered Clouds
12:53 PM 91.9 °F 101.3 °F 73.9 °F 55% 29.97 in 10.0 mi SW 11.5 mph 19.6 mph N/A   Scattered Clouds
1:53 PM 93.9 °F 105.4 °F 75.0 °F 54% 29.95 in 10.0 mi WSW 12.7 mph 21.9 mph N/A   Scattered Clouds
2:53 PM 93.9 °F 103.4 °F 73.0 °F 51% 29.94 in 10.0 mi West 13.8 mph - N/A   Scattered Clouds
3:53 PM 91.9 °F 100.7 °F 73.0 °F 54% 29.93 in 10.0 mi WNW 19.6 mph 26.5 mph N/A   Scattered Clouds
4:10 PM 88.0 °F 94.7 °F 72.0 °F 59% 29.94 in 10.0 mi West 16.1 mph 23.0 mph N/A Thunderstorm Thunderstorm
4:53 PM 78.1 °F - 73.0 °F 84% 29.96 in 10.0 mi WSW 18.4 mph 21.9 mph 0.00 in Rain , Thunderstorm Light Thunderstorms and Rain
5:53 PM 79.0 °F - 73.9 °F 84% 29.96 in 10.0 mi NW 10.4 mph - 0.00 in Thunderstorm Thunderstorm
6:26 PM 79.0 °F - 73.9 °F 84% 29.96 in 10.0 mi NNW 8.1 mph - N/A   Mostly Cloudy
6:53 PM 80.1 °F 84.5 °F 73.9 °F 81% 29.97 in 10.0 mi NNW 3.5 mph - N/A   Mostly Cloudy
7:53 PM 81.0 °F 86.7 °F 75.0 °F 82% 29.98 in 10.0 mi North 3.5 mph - N/A   Scattered Clouds
8:53 PM 81.0 °F 86.7 °F 75.0 °F 82% 30.00 in 10.0 mi West 3.5 mph - N/A   Mostly Cloudy
9:53 PM 80.1 °F 85.1 °F 75.0 °F 85% 30.02 in 10.0 mi Calm Calm - N/A   Scattered Clouds
10:53 PM 80.1 °F 85.1 °F 75.0 °F 85% 30.04 in 10.0 mi Calm Calm - N/A   Scattered Clouds
11:53 PM 80.1 °F 85.1 °F 75.0 °F 85% 30.04 in 10.0 mi Calm Calm - N/A   Scattered Clouds